When you browse on this site, cookies collect data to enhance your experience and personalize the content and advertising you see.
Visit our Privacy Policy to learn more. By continuing to use the site, you agree to this use of cookies and data.
  • In Hungary
  • List of Countries
  • For 7 days
  • Water Temperature
  • Satellite Maps
  • Weather Map
  • News
  • Weather Widgets
  • user-avatar
    Login

    Hourly Weather Kangayam

    Today, 17 July, Wednesday

    Time Temperature Precipitation Wind Pressure Humidity
    00:00 +27°C° 0 mm 7 mps 730 mmHg 76%
    01:00 +27°C° 0 mm 7 mps 730 mmHg 76%
    02:00 +27°C° 0 mm 7 mps 729 mmHg 77%
    03:00 +27°C° 0 mm 7 mps 729 mmHg 78%
    04:00 +27°C° 0 mm 7 mps 729 mmHg 78%
    05:00 +27°C° 0 mm 6 mps 729 mmHg 79%
    06:00 +27°C° 0 mm 6 mps 729 mmHg 77%
    07:00 +28°C° 0 mm 6 mps 729 mmHg 74%
    08:00 +28°C° 0 mm 6 mps 730 mmHg 72%
    09:00 +30°C° 0 mm 5 mps 730 mmHg 64%
    10:00 +33°C° 0 mm 4 mps 730 mmHg 56%
    11:00 +35°C° 0 mm 4 mps 730 mmHg 48%
    12:00 +35°C° 0 mm 4 mps 729 mmHg 46%
    13:00 +36°C° 0 mm 4 mps 729 mmHg 43%
    14:00 +37°C° 0 mm 4 mps 728 mmHg 41%
    15:00 +36°C° 0 mm 5 mps 728 mmHg 46%
    16:00 +35°C° 0 mm 7 mps 728 mmHg 51%
    17:00 +33°C° 0 mm 8 mps 727 mmHg 56%
    18:00 +32°C° 0.8 mm 9 mps 728 mmHg 62%
    19:00 +31°C° 0.8 mm 9 mps 728 mmHg 67%
    20:00 +28°C° 0.8 mm 9 mps 729 mmHg 72%
    21:00 +28°C° 0.6 mm 9 mps 729 mmHg 74%
    22:00 +28°C° 0.6 mm 8 mps 729 mmHg 75%
    23:00 +28°C° 0.6 mm 8 mps 729 mmHg 77%

    Tomorrow, 18 July, Thursday

    Time Temperature Precipitation Wind Pressure Humidity
    00:00 +27°C° 0.5 mm 8 mps 729 mmHg 79%
    01:00 +27°C° 0.5 mm 7 mps 728 mmHg 80%
    02:00 +27°C° 0.5 mm 7 mps 728 mmHg 82%
    03:00 +27°C° 0.3 mm 7 mps 728 mmHg 82%
    04:00 +27°C° 0.3 mm 6 mps 728 mmHg 82%
    05:00 +26°C° 0.3 mm 6 mps 728 mmHg 82%
    06:00 +26°C° 0.8 mm 5 mps 728 mmHg 82%
    07:00 +26°C° 0.8 mm 5 mps 729 mmHg 83%
    08:00 +26°C° 0.8 mm 4 mps 729 mmHg 84%
    09:00 +27°C° 0.1 mm 4 mps 729 mmHg 80%
    10:00 +28°C° 0.1 mm 5 mps 730 mmHg 75%
    11:00 +29°C° 0.1 mm 5 mps 730 mmHg 71%
    12:00 +29°C° 0.2 mm 6 mps 729 mmHg 68%
    13:00 +30°C° 0.2 mm 6 mps 728 mmHg 66%
    14:00 +32°C° 0.2 mm 6 mps 728 mmHg 63%
    15:00 +30°C° 0.4 mm 6 mps 727 mmHg 67%
    16:00 +29°C° 0.4 mm 7 mps 727 mmHg 70%
    17:00 +28°C° 0.4 mm 7 mps 727 mmHg 74%
    18:00 +28°C° 0.1 mm 7 mps 727 mmHg 76%
    19:00 +27°C° 0.1 mm 7 mps 728 mmHg 78%
    20:00 +27°C° 0.1 mm 7 mps 728 mmHg 80%
    21:00 +27°C° 0 mm 7 mps 728 mmHg 80%
    22:00 +26°C° 0 mm 7 mps 728 mmHg 81%
    23:00 +26°C° 0 mm 7 mps 728 mmHg 81%

    Day after tomorrow, 19 July, Friday

    Time Temperature Precipitation Wind Pressure Humidity
    00:00 +26°C° 0 mm 7 mps 728 mmHg 81%
    01:00 +26°C° 0 mm 6 mps 727 mmHg 82%
    02:00 +26°C° 0 mm 6 mps 727 mmHg 82%
    03:00 +26°C° 0 mm 6 mps 727 mmHg 82%
    04:00 +26°C° 0 mm 6 mps 727 mmHg 83%
    05:00 +26°C° 0 mm 5 mps 727 mmHg 83%
    06:00 +26°C° 0 mm 6 mps 727 mmHg 81%
    07:00 +27°C° 0 mm 6 mps 728 mmHg 79%
    08:00 +27°C° 0 mm 6 mps 728 mmHg 77%
    09:00 +28°C° 0 mm 5 mps 728 mmHg 71%
    10:00 +30°C° 0 mm 5 mps 728 mmHg 65%
    11:00 +32°C° 0 mm 4 mps 728 mmHg 59%
    12:00 +33°C° 0 mm 4 mps 727 mmHg 56%
    13:00 +34°C° 0 mm 4 mps 727 mmHg 54%
    14:00 +34°C° 0 mm 4 mps 726 mmHg 51%
    15:00 +34°C° 0.3 mm 5 mps 726 mmHg 54%
    16:00 +33°C° 0.3 mm 6 mps 726 mmHg 58%
    17:00 +32°C° 0.3 mm 7 mps 726 mmHg 61%
    18:00 +30°C° 0.4 mm 7 mps 726 mmHg 66%
    19:00 +29°C° 0.4 mm 7 mps 727 mmHg 71%
    20:00 +28°C° 0.4 mm 8 mps 727 mmHg 76%
    21:00 +27°C° 0.1 mm 7 mps 727 mmHg 78%
    22:00 +27°C° 0.1 mm 7 mps 728 mmHg 79%
    23:00 +27°C° 0.1 mm 7 mps 728 mmHg 80%

    20 July, Saturday

    Time Temperature Precipitation Wind Pressure Humidity
    00:00 +27°C° 0.6 mm 7 mps 727 mmHg 80%
    01:00 +26°C° 0.6 mm 8 mps 727 mmHg 80%
    02:00 +26°C° 0.6 mm 9 mps 727 mmHg 81%
    03:00 +26°C° 0.2 mm 9 mps 727 mmHg 79%
    04:00 +26°C° 0.2 mm 9 mps 727 mmHg 77%
    05:00 +26°C° 0.2 mm 9 mps 727 mmHg 75%
    06:00 +26°C° 0 mm 9 mps 727 mmHg 74%
    07:00 +27°C° 0 mm 9 mps 728 mmHg 74%
    08:00 +27°C° 0 mm 9 mps 728 mmHg 73%
    09:00 +29°C° 0 mm 9 mps 728 mmHg 68%
    10:00 +31°C° 0 mm 9 mps 728 mmHg 63%
    11:00 +32°C° 0 mm 9 mps 728 mmHg 59%
    12:00 +32°C° 0 mm 9 mps 728 mmHg 59%
    13:00 +32°C° 0 mm 10 mps 727 mmHg 59%
    14:00 +32°C° 0 mm 10 mps 727 mmHg 59%
    15:00 +31°C° 0 mm 10 mps 726 mmHg 62%
    16:00 +29°C° 0 mm 10 mps 726 mmHg 65%
    17:00 +29°C° 0 mm 10 mps 726 mmHg 68%
    18:00 +28°C° 0 mm 10 mps 727 mmHg 72%
    19:00 +27°C° 0 mm 10 mps 727 mmHg 75%
    20:00 +27°C° 0 mm 9 mps 728 mmHg 78%
    21:00 +27°C° 0 mm 9 mps 728 mmHg 78%
    22:00 +27°C° 0 mm 9 mps 728 mmHg 79%
    23:00 +26°C° 0 mm 8 mps 728 mmHg 80%

    21 July, Sunday

    Time Temperature Precipitation Wind Pressure Humidity
    00:00 +26°C° 0 mm 8 mps 728 mmHg 80%
    01:00 +26°C° 0 mm 8 mps 727 mmHg 81%
    02:00 +26°C° 0 mm 8 mps 727 mmHg 81%
    03:00 +26°C° 0 mm 8 mps 727 mmHg 81%
    04:00 +26°C° 0 mm 8 mps 726 mmHg 81%
    05:00 +26°C° 0 mm 7 mps 726 mmHg 81%
    06:00 +27°C° 0 mm 7 mps 727 mmHg 77%
    07:00 +27°C° 0 mm 7 mps 727 mmHg 74%
    08:00 +28°C° 0 mm 7 mps 728 mmHg 70%
    09:00 +29°C° 0 mm 7 mps 728 mmHg 67%
    10:00 +30°C° 0 mm 7 mps 728 mmHg 64%
    11:00 +32°C° 0 mm 7 mps 728 mmHg 61%
    12:00 +32°C° 0.1 mm 8 mps 727 mmHg 59%
    13:00 +33°C° 0.1 mm 9 mps 727 mmHg 58%
    14:00 +33°C° 0.1 mm 9 mps 726 mmHg 56%
    15:00 +32°C° 0 mm 9 mps 726 mmHg 59%
    16:00 +32°C° 0 mm 9 mps 726 mmHg 62%
    17:00 +31°C° 0 mm 9 mps 726 mmHg 65%
    18:00 +29°C° 0.1 mm 9 mps 727 mmHg 68%
    19:00 +28°C° 0.1 mm 9 mps 727 mmHg 72%
    20:00 +27°C° 0.1 mm 9 mps 728 mmHg 75%
    21:00 +27°C° 0.1 mm 9 mps 728 mmHg 76%
    22:00 +27°C° 0.1 mm 8 mps 728 mmHg 77%
    23:00 +27°C° 0.1 mm 8 mps 728 mmHg 79%

    22 July, Monday

    Time Temperature Precipitation Wind Pressure Humidity
    00:00 +27°C° 0.2 mm 7 mps 727 mmHg 80%
    01:00 +26°C° 0.2 mm 7 mps 727 mmHg 81%
    02:00 +26°C° 0.2 mm 6 mps 726 mmHg 82%
    03:00 +26°C° 0.5 mm 6 mps 726 mmHg 83%
    04:00 +26°C° 0.5 mm 7 mps 726 mmHg 83%
    05:00 +26°C° 0.5 mm 7 mps 726 mmHg 84%
    06:00 +26°C° 0.7 mm 7 mps 727 mmHg 83%
    07:00 +26°C° 0.7 mm 7 mps 727 mmHg 82%
    08:00 +26°C° 0.7 mm 6 mps 728 mmHg 81%
    09:00 +27°C° 0.2 mm 7 mps 728 mmHg 79%
    10:00 +27°C° 0.2 mm 8 mps 728 mmHg 77%
    11:00 +28°C° 0.2 mm 8 mps 728 mmHg 75%
    12:00 +28°C° 0.1 mm 8 mps 728 mmHg 75%
    13:00 +28°C° 0.1 mm 8 mps 727 mmHg 75%
    14:00 +28°C° 0.1 mm 8 mps 727 mmHg 75%
    15:00 +28°C° 0 mm 8 mps 727 mmHg 74%
    16:00 +27°C° 0 mm 8 mps 727 mmHg 74%
    17:00 +27°C° 0 mm 8 mps 726 mmHg 74%
    18:00 +27°C° 0 mm 9 mps 727 mmHg 75%
    19:00 +26°C° 0 mm 9 mps 727 mmHg 77%
    20:00 +26°C° 0 mm 9 mps 728 mmHg 78%
    21:00 +26°C° 0.1 mm 9 mps 728 mmHg 79%
    22:00 +26°C° 0.1 mm 10 mps 728 mmHg 80%
    23:00 +26°C° 0.1 mm 10 mps 728 mmHg 81%
    Show more